BIRKBGBW

Guest
Details From BIRK - Reykjavik
To BGBW - Narsarsuaq
Flight Number -
Tags decoded
Created
Modified
Stats Distance 670 nm / 1,241 km
Max Altitude 0 ft / 0 m
Waypoints 3
Social Downloads 0
Likes 0
Share

Download

Looking for another format? Having issues loading an existing format? Contact us
Advertisement - Login to hide

Notes

Requested: BIRK EMBLA 63 62 BGBW Unmatched points: 63 62

Route

BIRK EMBLA BGBW

ID Type Via Altitude (ft/m) Position (lat/lon) Dist (leg/tot) Name
O BIRK APT - 0 / 0 64.12964 / -21.94061 - / 0 nm Reykjavik
EMBLA FIX - 0 / 0 63.47000 / -26.98167 139 / 139 nm
O BGBW APT - 0 / 0 61.16052 / -45.42598 530 / 670 nm Narsarsuaq

Altitude Profile

Advertisement - Login to hide

Weather


0- 5 10 15 20 25 30 35+ Temperature / °C

Clouds and Precipitation
Forecast for 2022-05-27 12:00 UTC. Updated 6 hours ago

Ground ~20,000 ft ~40,000 ft Winds

BIRK

Details ICAO BIRK (RKV)
Name Reykjavik
Region Iceland
Timezone Atlantic/Reykjavik (UTC+0.0)
Stats Elevation 43 ft / 13 m (AMSL)
Location 64.130000° -21.940600°
Runways 2
Magnetic Variation 12.596° W

METAR

BIRK 271500Z 33009KT 9999 FEW030 SCT070 14/02 Q1022

Decode

TAF

TAF BIRK 271320Z 2715/2815 02007KT CAVOK TX14/2715Z TN08/2802Z BECMG 2719/2721 12010KT BECMG 2801/2803 9999 SCT020

Decode

Departure Runways

ID Width Length Bearing (true/mag) Surface Threshold Overrun Markings Lighting
01 148 ft / 45 m 5,243 ft / 1,598 m 355.27° / 7.87° ASPHALT 400 ft / 122 m 0 ft / 0 m PREC-APP EDGE THRESHOLD REIL-OMNI
13 148 ft / 45 m 4,184 ft / 1,275 m 116.31° / 128.90° ASPHALT 0 ft / 0 m 0 ft / 0 m PREC-APP EDGE THRESHOLD
19 148 ft / 45 m 5,243 ft / 1,598 m 175.27° / 187.87° ASPHALT 0 ft / 0 m 0 ft / 0 m PREC-APP EDGE THRESHOLD MALSR REIL-OMNI
31 148 ft / 45 m 4,184 ft / 1,275 m 296.33° / 308.92° ASPHALT 374 ft / 114 m 0 ft / 0 m PREC-APP EDGE THRESHOLD

BGBW

Details ICAO BGBW (UAK)
Name Narsarsuaq
Region Greenland
Timezone America/Godthab (UTC-2.0)
Stats Elevation 111 ft / 34 m (AMSL)
Location 61.160700° -45.425700°
Runways 1
Magnetic Variation 21.578° W

METAR

BGBW 271450Z 25005KT 220V280 9999 FEW070 BKN130 09/01 Q1015

Decode

TAF

Not found

Destination Runways

ID Width Length Bearing (true/mag) Surface Threshold Overrun Markings Lighting
07 148 ft / 45 m 6,010 ft / 1,832 m 40.52° / 62.09° CONCRETE 446 ft / 136 m 0 ft / 0 m PREC-APP EDGE THRESHOLD
25 148 ft / 45 m 6,010 ft / 1,832 m 220.54° / 242.11° CONCRETE 0 ft / 0 m 243 ft / 74 m PREC-APP EDGE THRESHOLD

Popular Alternatives